Nueva Ocotepeque, Honduras

3:08 PM CST on March 29, 2017 (GMT -0600)
Coronel Enrique Soto Cano Air Base

Weather History for MHSC - February, 2014

Change the Weather History Date:

Friday, February 21, 2014

  Actual Average Record
Temperature  
Mean Temperature 74 °F -  
Max Temperature 91 °F - - ()
Min Temperature 57 °F - - ()
Cooling Degree Days 9    
Growing Degree Days 24 (Base 50)    
Moisture  
Dew Point 60 °F    
Average Humidity 51    
Maximum Humidity 97    
Minimum Humidity 29    
Precipitation  
Precipitation 0.00 in - - ()
Sea Level Pressure  
Sea Level Pressure 29.84 in    
Wind  
Wind Speed 3 mph ()    
Max Wind Speed 14 mph    
Max Gust Speed 21 mph    
Visibility 6.2 miles    
Events      
T = Trace of Precipitation, MM = Missing Value Source: Averaged Metar Reports

Daily Weather History Graph

Daily Weather History Graph

Search for Another Location

Airport or City:

Trip Planner

Search our weather history database for the weather conditions in past years. The results will help you decide how hot, cold, wet, or windy it might be!

Date:

Astronomy

Feb. 21, 2014 Rise Set
Actual Time 6:17 AM CST 6:03 PM CST
Civil Twilight 5:56 AM CST 6:24 PM CST
Nautical Twilight 5:31 AM CST 6:49 PM CST
Astronomical Twilight 5:06 AM CST 7:14 PM CST
Moon 11:50 PM CST (2/21) 10:46 AM CST (2/21)
Length of Visible Light 12h 28m
Length of Day
11h 45m
Waning Gibbous, 60% of the Moon is Illuminated
Feb 21
Waning Gibbous
Feb 22
Last Quarter
Mar 1
New
Mar 8
First Quarter
Mar 16
Full

Hourly Weather History & Observations

Time (CST) Temp. Heat Index Dew Point Humidity Pressure Visibility Wind Dir Wind Speed Gust Speed Precip Events Conditions
4:58 AM 63.1 °F - 58.8 °F 86% 29.86 in 6.2 mi Calm Calm - N/A   Clear
5:58 AM 63.9 °F - 58.6 °F 83% 29.90 in 6.2 mi Calm Calm - N/A   Clear
6:00 AM 59 °F - 58 °F 97% 29.94 in 6 mi Calm Calm - -   Haze
6:58 AM 64.6 °F - 58.5 °F 80% 29.92 in 6.2 mi Calm Calm - N/A   Clear
7:58 AM 71.8 °F - 60.6 °F 68% 29.92 in 6.2 mi Calm Calm - N/A   Clear
8:58 AM 77.4 °F - 60.8 °F 57% 29.91 in 6.2 mi Variable 4.6 mph - N/A   Clear
9:58 AM 81.9 °F 82.3 °F 60.4 °F 48% 29.91 in 6.2 mi NW 8.1 mph - N/A   Clear
10:55 AM 85.1 °F 85.0 °F 60.1 °F 43% 29.88 in 6.2 mi WNW 5.8 mph - N/A   Clear
11:55 AM 88.3 °F 87.3 °F 58.1 °F 36% 29.83 in 6.2 mi NNW 5.8 mph - N/A   Clear
12:00 PM 87 °F - 63 °F 34% 29.84 in 6 mi North 2.3 mph - -   Haze
12:55 PM 91.0 °F 89.2 °F 55.4 °F 30% 29.79 in 6.2 mi NW 12.7 mph 20.7 mph N/A   Clear
1:55 PM 89.6 °F 87.7 °F 55.4 °F 31% 29.77 in 6.2 mi WNW 13.8 mph 20.7 mph N/A   Scattered Clouds
2:55 PM 92.5 °F 90.7 °F 55.8 °F 29% 29.74 in 6.2 mi North 13.8 mph 20.7 mph N/A   Scattered Clouds
3:00 PM 91 °F - 63 °F 29% 29.78 in 6 mi North 4.6 mph - -   Haze
3:58 PM 88.9 °F 87.3 °F 56.5 °F 33% 29.75 in 6.2 mi NW 6.9 mph - N/A   Overcast
4:58 PM 88.5 °F 87.3 °F 57.7 °F 35% 29.77 in 6.2 mi NW 9.2 mph - N/A   Overcast
5:58 PM 84.7 °F 84.6 °F 59.7 °F 43% 29.78 in 6.2 mi ESE 3.5 mph - N/A   Overcast
6:00 PM 85 °F - 63 °F 38% 29.79 in 6 mi North 4.6 mph - -   Haze
8:58 PM 76.8 °F - 67.6 °F 73% 29.87 in 6.2 mi WNW 5.8 mph - N/A   Mostly Cloudy